Location: Occidental Observatory
(38.4214°N, 122.9202°W)
Time: 17:08:40
(UTC-08:00)

Daily predictions for brighter satellites

Satellite Brightness Start Highest point End
(mag) Time Altitude Azimuth Time Altitude Azimuth Time Altitude Azimuth
YAOGAN 1 3.5 17:20:40 10° SE 17:24:16 26° ENE 17:27:53 10° NNE
MSX 4.3 17:20:07 10° S 17:25:51 70° WSW 17:31:38 10° NNW
Meteor 2-10 Rocket 3.5 17:21:21 10° S 17:26:25 72° E 17:31:44 10° NNE
Cosmos 1862 3.3 17:24:51 10° N 17:28:52 66° E 17:32:51 10° SSE
Cosmos 1741 Rocket 4.1 17:25:40 10° SSW 17:30:59 87° WNW 17:36:21 10° NNE
Cosmos 1707 Rocket 4.2 17:31:11 10° SSW 17:35:35 60° W 17:40:02 10° N
CSL-04 Debris 4.2 17:30:26 10° SSE 17:35:52 80° ENE 17:41:18 10° N
Cosmos 1461 3.5 17:31:43 10° NNW 17:36:10 43° NE 17:40:41 10° SE
Cosmos 371 Rocket 3.4 17:32:09 10° N 17:36:52 53° ENE 17:41:32 10° SE
Cosmos 1484 Rocket 2.7 17:33:21 10° SSE 17:37:07 72° ENE 17:40:59 10° N
AQUARIUS 4.1 17:33:07 10° SSE 17:37:34 70° ENE 17:42:03 10° N
DNEPR-1 R/B 4.1 17:33:15 10° SW 17:37:43 57° WNW 17:41:53 10° NNE
Cosmos 1867 3.8 17:32:46 10° NW 17:38:13 76° WSW 17:43:38 10° SSE
Cosmos 1844 3.9 17:32:46 10° S 17:38:23 56° ESE 17:44:02 10° NNE
Cosmos 1570 Rocket 4.0 17:34:48 10° NNW 17:40:10 74° ENE 17:45:29 10° SSE
USA 116 4.0 17:39:38 10° NNE 17:44:20 63° E 17:48:27 10° S
Cosmos 2278 Rocket 3.0 17:41:23 10° SSE 17:46:14 30° ESE 17:51:05 10° NE
Cosmos 1346 3.3 17:44:58 10° SSW 17:47:14 50° W 17:49:29 10° N
Meteor 2-12 Rocket 4.4 17:41:57 10° S 17:48:00 69° E 17:54:03 10° NNE
Cosmos 1833 Rocket 4.4 17:47:07 10° NNE 17:49:04 12° NE 17:49:37 12° NE
FENGYUN 3A 4.4 17:47:41 10° SE 17:52:15 29° ENE 17:56:49 10° N
EO 1 Del DPAF 3.6 17:51:41 10° NNE 17:55:19 41° E 17:58:56 10° S
USA 234 3.3 17:50:08 10° NE 17:56:43 90° SSE 18:03:16 10° SW
Cosmos 2242 Rocket 3.7 17:53:57 10° S 17:58:31 83° W 18:03:06 10° N
Cosmos 1606 4.1 17:56:32 10° SE 17:59:14 19° E 17:59:19 19° E
Cosmos 332 Rocket 4.0 17:54:43 10° NNW 17:59:35 78° WSW 18:04:27 10° SSE
Meteor 1-28 Rocket 3.4 17:56:20 10° N 18:00:03 70° WNW 18:03:43 10° SSW
MTI 3.6 18:00:55 10° NNE 18:04:07 76° E 18:07:20 10° S
Cosmos 2233 Rocket 4.0 17:58:29 10° S 18:04:42 68° E 18:10:54 10° NNE
CZ-2C R/B 3.9 18:00:36 10° N 18:05:02 73° WNW 18:09:32 10° SSW
Sich 1 Rocket 4.3 18:02:53 10° NNE 18:06:46 29° ENE 18:10:38 10° SE
Landsat 4 3.9 18:04:27 10° N 18:08:13 74° WNW 18:12:00 10° SSW
COSMOS 2455 2.8 18:03:00 10° SSW 18:08:59 76° ESE 18:15:01 10° NNE
SKYMED 2 3.5 18:05:49 10° NNE 18:10:09 66° E 18:14:27 10° S
Aureole 3 4.4 18:06:34 10° NNW 18:10:51 62° W 18:16:19 10° S
OE (NEXTSAT) 4.3 18:07:49 10° WNW 18:11:20 65° NNE 18:12:59 28° E
Meteor 1-20 Rocket 4.5 18:06:32 10° N 18:11:49 42° ENE 18:16:59 10° SSE
Cosmos 1908 Rocket 3.8 18:09:03 10° N 18:13:11 41° E 18:17:16 10° SSE
BREEZE-M R/B 3.8 18:11:08 10° NNW 18:13:38 24° NNE 18:14:05 23° NE
Timation 1 Rocket 4.3 18:08:07 10° SSW 18:14:02 69° ESE 18:20:01 10° NNE
CZ-4 R/B 2.3 18:11:58 10° S 18:15:46 50° W 18:19:34 10° NNW
ALOS 2.4 18:13:53 10° SE 18:18:21 47° ENE 18:22:50 10° N
Cosmos 1733 Rocket 3.5 18:15:01 10° NNW 18:19:24 64° W 18:23:47 10° S
Cosmos 468 Rocket 4.0 18:17:54 10° NNW 18:23:06 85° WSW 18:28:14 10° SSE
Cosmos 1862 Rocket 4.3 18:20:27 10° SSW 18:24:45 54° W 18:29:07 10° N
Meteor 1-14 Rocket 4.1 18:21:11 10° N 18:26:55 77° E 18:32:28 10° SSE
Cosmos 2082 Rocket 3.4 18:22:32 10° N 18:26:12 22° NE 18:26:12 22° NE
ERBS 3.9 18:26:46 10° NNW 18:28:38 22° N 18:28:38 22° N
Lacrosse 5 4.0 18:30:11 10° WNW 18:33:30 17° NNW 18:36:49 10° NNE
CENTAUR R/B 3.7 18:42:23 10° WSW 18:48:02 39° NW 18:54:06 11° NNE
COSMOS 2406 4.4 18:43:50 10° NW 18:49:14 44° WSW 18:54:35 10° S
Cosmos 1503 Rocket 4.2 18:44:46 10° S 18:49:47 48° ESE 18:49:47 48° ESE
Cosmos 1763 Rocket 3.4 18:44:36 10° NNW 18:49:51 84° WSW 18:54:59 10° SSE
Cosmos 1814 Rocket 4.2 18:45:07 10° NNW 18:50:29 75° WSW 18:55:48 10° S
Cosmos 1072 Rocket 4.3 18:45:08 10° S 18:51:17 75° E 18:57:32 10° N
ERS-2 4.4 18:52:30 10° SSW 18:55:37 26° W 18:58:45 10° NW
Cosmos 2221 Rocket 3.5 18:51:54 10° S 18:55:50 66° SE 18:55:50 66° SE
Cosmos 1782 Rocket 4.5 18:52:43 10° N 19:02:58 - S 18:55:17 35° N
Cosmos 2034 Rocket 4.0 18:50:55 10° SSE 18:57:05 55° E 18:59:44 33° NNE
Cosmos 972 4.4 18:52:43 10° NNW 18:57:49 77° WSW 19:02:39 10° S
COSMO-SKYMED 1 4.1 18:54:11 10° N 18:58:06 34° WNW 19:02:01 10° SW
Okean 1-7 2.9 18:55:28 10° S 18:59:48 89° E 18:59:57 84° NNE
NOAA 12 4.5 18:55:35 10° S 19:00:51 65° WSW 19:06:10 10° NNW
Cosmos 1782 4.0 19:13:56 10° SSW 19:17:45 41° W 19:18:05 40° WNW
Cosmos 2297 3.7 19:13:49 10° SSW 19:18:49 68° SSE 19:18:49 68° SSE
Cosmos 841 Rocket 4.0 19:15:39 10° NNW 19:20:50 58° WSW 19:24:34 18° S
MOS 1-B Rocket 4.3 19:19:28 24° SSE 19:23:56 79° ENE 19:31:59 10° N
Cosmos 1354 Rocket 4.2 19:20:00 10° SSW 19:24:39 68° SW 19:24:39 68° SW
Cosmos 1464 Rocket 4.4 19:22:42 10° SSW 19:28:43 60° W 19:34:47 10° N
Cosmos 2278 Rocket 3.5 19:24:58 10° SW 19:30:09 36° WNW 19:33:13 21° N
Cosmos 1833 Rocket 3.8 19:28:18 10° NNW 19:31:22 34° NNW 19:31:22 34° NNW
CZ-4C R/B 4.0 19:35:08 10° NNW 19:38:48 28° N 19:38:48 28° N
Cosmos 2082 Rocket 4.1 20:05:51 10° NNW 20:08:06 24° NW 20:08:06 24° NW
